Malaga, Spain

5:45 PM CET on November 22, 2017 (GMT +0100)
Malaga

Weather History for LEMG - July, 2017

Change the Weather History Date:

Monday, July 17, 2017

  Actual Average Record
Temperature  
Mean Temperature 78 °F -  
Max Temperature 87 °F 85 °F 105 °F (2005)
Min Temperature 69 °F 67 °F 62 °F (2003)
Cooling Degree Days 13    
Growing Degree Days 28 (Base 50)    
Moisture  
Dew Point 63 °F    
Average Humidity 59    
Maximum Humidity 83    
Minimum Humidity 31    
Precipitation  
Precipitation 0.00 in 0.00 in - ()
Sea Level Pressure  
Sea Level Pressure 30.03 in    
Wind  
Wind Speed 4 mph ()    
Max Wind Speed 10 mph    
Max Gust Speed 15 mph    
Visibility 14.2 miles    
Events      
Averages and records for this station are not official NWS values.
T = Trace of Precipitation, MM = Missing Value Source: Averaged Metar Reports

Daily Weather History Graph

Daily Weather History Graph

Search for Another Location

Airport or City:

Trip Planner

Search our weather history database for the weather conditions in past years. The results will help you decide how hot, cold, wet, or windy it might be!

Date:

Astronomy

Jul. 17, 2017 Rise Set
Actual Time 7:12 AM CEST 9:35 PM CEST
Civil Twilight 6:42 AM CEST 10:05 PM CEST
Nautical Twilight 6:06 AM CEST 10:41 PM CEST
Astronomical Twilight 5:25 AM CEST 11:21 PM CEST
Moon 2:07 AM CEST (7/17) 3:16 PM CEST (7/17)
Length of Visible Light 15h 22m
Length of Day
14h 23m
Last Quarter, 43% of the Moon is Illuminated
Jul 17
Last Quarter
Jul 23
New
Jul 30
First Quarter
Aug 7
Full
Aug 15
Last Quarter

Hourly Weather History & Observations

Time (CEST) Temp. Heat Index Dew Point Humidity Pressure Visibility Wind Dir Wind Speed Gust Speed Precip Events Conditions
12:00 AM 76 °F - 70 °F 75% 30.09 in - Calm Calm - -  
12:00 AM 75.2 °F - 69.8 °F 83% 30.09 in - Calm Calm - N/A   Clear
12:30 AM 75.2 °F - 69.8 °F 83% 30.06 in - Calm Calm - N/A   Clear
1:00 AM 74 °F - 68 °F 76% 30.09 in - SSW 1.2 mph - -  
1:00 AM 75.2 °F - 66.2 °F 73% 30.06 in - Calm Calm - N/A   Clear
1:30 AM 75.2 °F - 66.2 °F 73% 30.06 in - Variable 1.2 mph - N/A   Clear
2:00 AM 74 °F - 67 °F 72% 30.08 in 9 mi Calm Calm - -   Scattered Clouds
2:00 AM 75.2 °F - 66.2 °F 73% 30.06 in - Calm Calm - N/A   Clear
2:30 AM 71.6 °F - 64.4 °F 78% 30.06 in - WNW 3.5 mph - N/A   Clear
3:00 AM 74 °F - 64 °F 63% 30.07 in - WNW 4.6 mph - -  
3:00 AM 71.6 °F - 62.6 °F 73% 30.06 in - WNW 3.5 mph - N/A   Clear
3:30 AM 71.6 °F - 66.2 °F 83% 30.06 in - West 5.8 mph - N/A   Clear
4:00 AM 74 °F - 65 °F 65% 30.05 in - WNW 8.1 mph - -  
4:00 AM 71.6 °F - 64.4 °F 78% 30.04 in - WNW 6.9 mph - N/A   Clear
4:30 AM 71.6 °F - 62.6 °F 73% 30.04 in - WNW 8.1 mph - N/A   Clear
5:00 AM 72 °F - 63 °F 66% 30.04 in 9 mi WNW 10.4 mph - -   Clear
5:00 AM 69.8 °F - 62.6 °F 78% 30.04 in - WNW 8.1 mph - N/A   Clear
5:30 AM 68.0 °F - 62.6 °F 83% 30.04 in - NW 5.8 mph - N/A   Clear
6:00 AM 71 °F - 64 °F 72% 30.04 in - WNW 9.2 mph - -  
6:00 AM 68.0 °F - 62.6 °F 83% 30.04 in - WNW 9.2 mph - N/A   Clear
6:30 AM 68.0 °F - 62.6 °F 83% 30.04 in - WNW 9.2 mph - N/A   Clear
7:00 AM 71 °F - 63 °F 68% 30.04 in - WNW 9.2 mph - -  
7:00 AM 68.0 °F - 62.6 °F 83% 30.04 in - WNW 8.1 mph - N/A   Clear
7:30 AM 68.0 °F - 62.6 °F 83% 30.04 in - WNW 10.4 mph - N/A   Clear
8:00 AM 71 °F - 63 °F 68% 30.05 in 16 mi WNW 9.2 mph - -   Scattered Clouds
8:00 AM 69.8 °F - 62.6 °F 78% 30.04 in - WNW 9.2 mph - N/A   Clear
8:30 AM 69.8 °F - 62.6 °F 78% 30.04 in - WNW 6.9 mph - N/A   Clear
9:00 AM 74 °F - 64 °F 62% 30.06 in 16 mi WNW 8.1 mph - -   Scattered Clouds
9:00 AM 73.4 °F - 62.6 °F 69% 30.06 in - WNW 8.1 mph - N/A   Clear
9:30 AM 75.2 °F - 62.6 °F 65% 30.04 in - WNW 8.1 mph - N/A   Clear
10:00 AM 78 °F - 65 °F 56% 30.05 in - WNW 4.6 mph - -  
10:00 AM 77.0 °F - 64.4 °F 65% 30.04 in - WNW 4.6 mph - N/A   Clear
10:30 AM 80.6 °F 81.8 °F 62.6 °F 54% 30.04 in - Variable 1.2 mph - N/A   Clear
11:00 AM 84 °F - 59 °F 32% 30.05 in 19 mi SE 5.8 mph - -   Partly Cloudy
11:00 AM 84.2 °F 83.5 °F 57.2 °F 40% 30.04 in - SE 3.5 mph - N/A   Clear
11:30 AM 84.2 °F 83.8 °F 59.0 °F 42% 30.04 in - SE 5.8 mph - N/A   Clear
12:00 PM 86 °F - 60 °F 31% 30.04 in - ESE 3.5 mph - -  
12:00 PM 84.2 °F 83.5 °F 57.2 °F 40% 30.04 in - Variable 3.5 mph - N/A   Clear
12:30 PM 84.2 °F 83.8 °F 59.0 °F 42% 30.04 in - ESE 5.8 mph - N/A   Clear
1:00 PM 87 °F - 61 °F 31% 30.04 in - ESE 6.9 mph - -  
1:00 PM 86.0 °F 85.4 °F 59.0 °F 40% 30.04 in - ESE 8.1 mph - N/A   Clear
1:30 PM 84.2 °F 83.8 °F 59.0 °F 42% 30.04 in - ESE 6.9 mph - N/A   Clear
2:00 PM 88 °F - 62 °F 31% 30.02 in 19 mi SSE 8.1 mph - -   Clear
2:00 PM 86.0 °F 86.1 °F 60.8 °F 43% 30.01 in - SSE 8.1 mph - N/A   Clear
2:30 PM 84.2 °F 83.8 °F 59.0 °F 42% 30.01 in - SE 9.2 mph - N/A   Clear
3:00 PM 86 °F - 61 °F 33% 30.01 in 19 mi SE 8.1 mph - -   Clear
3:00 PM 84.2 °F 84.4 °F 60.8 °F 45% 30.01 in - SE 6.9 mph - N/A   Clear
3:30 PM 82.4 °F 82.5 °F 59.0 °F 45% 30.01 in - SE 6.9 mph - N/A   Clear
4:00 PM 84 °F - 62 °F 37% 30.01 in - SSE 5.8 mph - -  
4:00 PM 82.4 °F 82.9 °F 60.8 °F 48% 30.01 in - SSE 5.8 mph - N/A   Clear
4:30 PM 82.4 °F 82.9 °F 60.8 °F 48% 30.01 in - SSE 8.1 mph - N/A   Clear
5:00 PM 80.6 °F 81.5 °F 60.8 °F 51% 29.98 in - SSE 6.9 mph - N/A   Clear
5:30 PM 80.6 °F 81.8 °F 62.6 °F 54% 30.01 in - SE 8.1 mph - N/A   Clear
6:00 PM 81 °F - 63 °F 45% 30.00 in - SSE 8.1 mph - -  
6:00 PM 80.6 °F 81.8 °F 62.6 °F 54% 30.01 in - SSE 6.9 mph - N/A   Clear
6:30 PM 78.8 °F - 62.6 °F 57% 29.98 in - SSE 6.9 mph - N/A   Clear
7:00 PM 80 °F - 65 °F 50% 29.99 in - SE 5.8 mph - -  
7:00 PM 78.8 °F - 64.4 °F 61% 29.98 in - SE 3.5 mph - N/A   Clear
7:30 PM 80.6 °F 82.3 °F 64.4 °F 58% 29.95 in - North 2.3 mph 15.0 mph N/A   Clear
8:00 PM 82 °F - 64 °F 45% 29.97 in 12 mi Calm Calm - -   Scattered Clouds
8:00 PM 82.4 °F 83.9 °F 64.4 °F 54% 29.95 in - Calm Calm - N/A   Clear
8:30 PM 82.4 °F 83.4 °F 62.6 °F 51% 29.98 in - South 1.2 mph - N/A   Clear
9:00 PM 82 °F - 63 °F 43% 29.98 in - ENE 1.2 mph - -  
9:00 PM 80.6 °F 81.5 °F 60.8 °F 51% 29.98 in - ENE 1.2 mph - N/A   Clear
9:30 PM 78.8 °F - 62.6 °F 57% 29.98 in - Variable 2.3 mph - N/A   Clear
10:00 PM 79 °F - 64 °F 51% 30.00 in - SE 2.3 mph - -  
10:00 PM 77.0 °F - 62.6 °F 61% 30.01 in - Variable 2.3 mph - N/A   Clear
10:30 PM 77.0 °F - 62.6 °F 61% 30.01 in - Calm Calm - N/A   Clear
11:00 PM 77 °F - 65 °F 59% 30.02 in 9 mi SSE 2.3 mph - -   Scattered Clouds
11:00 PM 77.0 °F - 64.4 °F 65% 30.01 in - Variable 2.3 mph - N/A   Clear
11:30 PM 75.2 °F - 64.4 °F 69% 30.04 in - Variable 1.2 mph - N/A   Clear